カタリナ彗星

C/2018 W1 ( Catalina )

English version
Home page
Updated on August 7, 2019

---------------------------------------------------------------------

・ プロフィール

発見日 2018年11月16日
発見光度 19.8等
発見者 Catalina Sky Survey

・ 写真集

・ 軌道要素

Epoch 2019 Apr. 27.0 TT = JDT 2458600.5
T 2019 May 11.85357 TT                                  MPCW
q   1.3601948            (2000.0)            P               Q
n   0.00968158     Peri.  251.24749     +0.10162586     -0.59234154
a  21.8024401      Node   233.58935     +0.67180327     -0.55168828
e   0.9376127      Incl.   83.27845     -0.73372512     -0.58717249
P 102
From 243 observations 2018 Nov. 16-2019 May 26, mean residual 0".4.

・ 星図

・ 光度変化

        m1 = 13.5 + 5 logΔ + 10.0 log r  [   ,-73]  (              〜2019年 2月27日)
        m1 =  2.0 + 5 logΔ + 60   log r  [-73,  0]  (2019年 2月27日〜2019年 5月11日)
        m1 =  6.0 + 5 logΔ + 30   log r  [  0,   ]  (2019年 5月11日〜              )

---------------------------------------------------------------------

軌道要素はM.P.E.C. 2019-L24に掲載されたものです。
星図はステラナビゲータ Ver.10 (アストロアーツ) で作成したものです。
光度グラフはComet for Windowsで作成したものです。

---------------------------------------------------------------------

Copyright(C) Seiichi Yoshida (comet@aerith.net). All rights reserved.